Location: Borea
(45.6167°N, 23.0167°E)
Time: 17:05:17
(UTC+00:00)

SL-16 R/B - Visible Passes

Search period start: 30 September 2023 00:00
Search period end: 10 October 2023 00:00
Orbit: 841 x 846 km, 71.0° (Epoch: 29 September)

Date Brightness Start Highest point End Pass type
(mag) Time Alt. Az. Time Alt. Az. Time Alt. Az.
30 Sep 4.8 17:21:14 10° W 17:24:55 17° NW 17:28:37 10° N visible
30 Sep 5.1 22:43:16 10° N 22:43:32 11° N 22:43:32 11° N visible
01 Oct 4.8 17:06:40 10° W 17:10:26 18° NW 17:14:14 10° N visible
02 Oct 4.7 16:52:06 10° W 16:55:57 18° NW 16:59:50 10° N visible
03 Oct 4.7 16:37:32 10° W 16:41:29 19° NW 16:45:27 10° N visible
